Oshkosh, WI

8:16 AM CDT on June 23, 2017 (GMT -0500)
Wittman Regional

Weather History for KOSH - March, 2014

Change the Weather History Date:

Friday, March 21, 2014

  Actual Average Record
Temperature  
Mean Temperature 34 °F -  
Max Temperature 45 °F 40 °F 82 °F (2012)
Min Temperature 24 °F 24 °F 0 °F (1965)
Degree Days  
Heating Degree Days 31    
Moisture  
Dew Point 26 °F    
Average Humidity 74    
Maximum Humidity 84    
Minimum Humidity 53    
Precipitation  
Precipitation 0.00 in - - ()
Sea Level Pressure  
Sea Level Pressure 29.89 in    
Wind  
Wind Speed 6 mph (SSE)    
Max Wind Speed 16 mph    
Max Gust Speed 25 mph    
Visibility 8 miles    
Events      
Averages and records for this station are not official NWS values.
T = Trace of Precipitation, MM = Missing Value Source: NWS Daily Summary

Daily Weather History Graph

Daily Weather History Graph

Search for Another Location

Airport or City:

Trip Planner

Search our weather history database for the weather conditions in past years. The results will help you decide how hot, cold, wet, or windy it might be!

Date:

Astronomy

Mar. 21, 2014 Rise Set
Actual Time 6:55 AM CDT 7:07 PM CDT
Civil Twilight 6:26 AM CDT 7:36 PM CDT
Nautical Twilight 5:53 AM CDT 8:10 PM CDT
Astronomical Twilight 5:18 AM CDT 8:45 PM CDT
Moon No Moon Rise 9:37 AM CDT (3/21)
Length of Visible Light 13h 09m
Length of Day
12h 12m
Waning Gibbous, 75% of the Moon is Illuminated
Mar 21
Waning Gibbous
Mar 23
Last Quarter
Mar 30
New
Apr 7
First Quarter
Apr 15
Full

Hourly Weather History & Observations

Time (CDT) Temp. Windchill Dew Point Humidity Pressure Visibility Wind Dir Wind Speed Gust Speed Precip Events Conditions
12:53 AM 27.0 °F - 21.0 °F 78% 30.04 in 10.0 mi Calm Calm - N/A   Clear
1:53 AM 26.1 °F 21.9 °F 21.0 °F 81% 30.03 in 10.0 mi South 3.5 mph - N/A   Clear
2:53 AM 28.0 °F 22.8 °F 23.0 °F 81% 30.01 in 10.0 mi South 4.6 mph - N/A   Clear
3:53 AM 26.1 °F 20.5 °F 21.0 °F 81% 30.00 in 10.0 mi South 4.6 mph - N/A   Clear
4:53 AM 27.0 °F 21.6 °F 21.9 °F 81% 30.00 in 10.0 mi South 4.6 mph - N/A   Clear
5:53 AM 26.1 °F 21.9 °F 21.0 °F 81% 29.99 in 9.0 mi South 3.5 mph - N/A   Clear
6:53 AM 24.1 °F 18.2 °F 19.9 °F 84% 29.99 in 8.0 mi SSE 4.6 mph - N/A   Clear
7:53 AM 28.9 °F 21.1 °F 24.1 °F 82% 30.00 in 5.0 mi South 8.1 mph - N/A   Haze
8:53 AM 32.0 °F 24.8 °F 26.1 °F 79% 29.99 in 4.0 mi SSE 8.1 mph - N/A   Haze
9:53 AM 37.0 °F 29.8 °F 27.0 °F 67% 29.98 in 8.0 mi SSE 10.4 mph - N/A   Clear
10:53 AM 39.0 °F 31.0 °F 27.0 °F 62% 29.94 in 10.0 mi SSE 13.8 mph - N/A   Clear
11:53 AM 39.9 °F 31.8 °F 27.0 °F 60% 29.90 in 10.0 mi SSE 15.0 mph - N/A   Partly Cloudy
12:53 PM 42.1 °F 34.2 °F 27.0 °F 55% 29.86 in 10.0 mi SE 16.1 mph 25.3 mph N/A   Partly Cloudy
1:53 PM 44.1 °F 37.4 °F 28.0 °F 53% 29.83 in 10.0 mi SSE 13.8 mph - N/A   Clear
2:53 PM 43.0 °F 35.4 °F 28.0 °F 56% 29.79 in 10.0 mi SE 16.1 mph 23.0 mph N/A   Partly Cloudy
3:53 PM 39.9 °F 31.4 °F 28.9 °F 65% 29.76 in 9.0 mi SE 16.1 mph 24.2 mph N/A   Scattered Clouds
4:53 PM 39.9 °F 34.5 °F 30.9 °F 70% 29.79 in 8.0 mi SSE 8.1 mph - N/A   Mostly Cloudy
5:53 PM 37.9 °F 30.9 °F 30.0 °F 73% 29.76 in 8.0 mi SE 10.4 mph - N/A   Overcast
6:53 PM 36.0 °F 31.1 °F 28.9 °F 76% 29.76 in 7.0 mi ESE 5.8 mph - N/A   Clear
7:53 PM 35.1 °F 32.2 °F 28.9 °F 78% 29.77 in 8.0 mi East 3.5 mph - N/A   Mostly Cloudy
8:53 PM 34.0 °F - 28.9 °F 82% 29.78 in 7.0 mi Calm Calm - N/A   Overcast
9:53 PM 34.0 °F 29.8 °F 28.9 °F 82% 29.80 in 7.0 mi NNW 4.6 mph - N/A   Overcast
10:53 PM 34.0 °F 28.8 °F 28.9 °F 82% 29.82 in 6.0 mi WNW 5.8 mph - N/A   Haze
11:16 PM 35.1 °F 26.4 °F 30.0 °F 82% 29.79 in 7.0 mi WNW 12.7 mph - N/A   Overcast
11:53 PM 35.1 °F 27.9 °F 30.0 °F 82% 29.84 in 7.0 mi WNW 9.2 mph - N/A   Overcast